Hourly Data Report for May 19, 2012

All times are specified in Local Standard Time (LST). Add 1 hour to adjust for Daylight Saving Time where and when it is observed.

HAMILTON A
ONTARIO

43°10'25.000" N
79°56'06.000" W
237.70 m
6153193
71263
YHM

Download Data

Hourly Data (May 2012)
Hourly Data Report for May 19, 2012
Temp Definition
°C
Dew Point Temp Definition
°C
Rel Hum Definition
%
Wind Dir Definition
10's deg

Wind Spd Definition
km/h
Visibility Definition
km
Stn Press Definition
kPa
Hmdx Definition


Wind Chill Definition


Weather Definition


TIME
00:00 Legend Double Dagger 9.7 5.5 75   0 10.0 99.21     LegendNANA
01:00 Legend Double Dagger 9.0 4.3 72 4 9 10.0 99.19     Mainly Clear
02:00 Legend Double Dagger 9.6 4.2 69 3 10 10.0 99.19     LegendNANA
03:00 Legend Double Dagger 8.4 4.4 76 4 12 10.0 99.23     LegendNANA
04:00 Legend Double Dagger 8.4 5.0 79 3 11 10.0 99.27     Mainly Clear
05:00 Legend Double Dagger 8.1 5.4 83 4 14 10.0 99.31     LegendNANA
06:00 Legend Double Dagger 10.4 6.8 78 4 9 10.0 99.32     LegendNANA
07:00 Legend Double Dagger 13.7 7.1 64 5 5 10.0 99.35     Mainly Clear
08:00 Legend Double Dagger 17.2 9.2 59 16 7 10.0 99.35     LegendNANA
09:00 Legend Double Dagger 20.4 9.2 48 12 4 10.0 99.38     LegendNANA
10:00 Legend Double Dagger 22.4 9.7 44 17 7 10.0 99.36     Mainly Clear
11:00 Legend Double Dagger 24.5 11.3 43 22 6 10.0 99.38 26   LegendNANA
12:00 Legend Double Dagger 25.6 9.7 36   0 10.0 99.37 27   LegendNANA
13:00 Legend Double Dagger 26.5 9.6 34 25 8 10.0 99.32 28   Mainly Clear
14:00 Legend Double Dagger 27.5 9.1 31 36 5 10.0 99.28 28   LegendNANA
15:00 Legend Double Dagger 28.4 10.4 32 20 7 10.0 99.23 30   LegendNANA
16:00 Legend Double Dagger 28.6 8.6 28 20 17 10.0 99.19 29   Clear
17:00 Legend Double Dagger 27.6 9.7 32 20 17 10.0 99.20 29   LegendNANA
18:00 Legend Double Dagger 26.0 8.3 32 19 18 10.0 99.19 27   LegendNANA
19:00 Legend Double Dagger 23.5 7.8 36 18 12 10.0 99.19     Mainly Clear
20:00 Legend Double Dagger 20.2 7.4 43 19 10 10.0 99.22     LegendNANA
21:00 Legend Double Dagger 20.0 7.2 43 20 6 10.0 99.25     LegendNANA
22:00 Legend Double Dagger 19.3 7.2 45 23 5 10.0 99.28     Clear
23:00 Legend Double Dagger 18.0 6.9 48 24 6 10.0 99.27     LegendNANA

Notes on Data Quality.

Legend

  • E = Estimated
  • M = Missing
  • NA = Not Available
  • ‡ = Partner data that is not subject to review by the National Climate Archives
Date modified: